CW9803 Weather Reports


time (UTC)temp
C
wind
direction
speed
KPH
gust
KPH
rain 1hr
cm
rain 24hr
cm
rain mn
cm
humidity
%
barometer
mb
20260503184610 23 132 0.0 1.6 0.00 0.00 0.00 42 1011.4
20260503184107 22 160 3.2 6.4 0.00 0.00 0.00 43 1011.4
20260503183603 22 157 1.6 3.2 0.00 0.00 0.00 42 1011.4
20260503183101 22 95 4.8 4.8 0.00 0.00 0.00 40 1011.6
20260503182559 22 146 3.2 3.2 0.00 0.00 0.00 42 1011.7
20260503182057 21 153 1.6 3.2 0.00 0.00 0.00 44 1011.8
20260503181554 21 147 1.6 1.6 0.00 0.00 0.00 46 1011.9
20260503181050 21 161 3.2 4.8 0.00 0.00 0.00 46 1011.8
20260503180547 21 139 3.2 3.2 0.00 0.00 0.00 45 1011.9
20260503180045 21 148 3.2 4.8 0.00 0.00 0.00 48 1012.0
20260503175541 20 156 1.6 1.6 0.00 0.00 0.00 47 1012.1
20260503175038 20 145 3.2 3.2 0.00 0.00 0.00 47 1012.0
20260503174535 20 176 4.8 4.8 0.00 0.00 0.00 47 1012.2
20260503174031 20 130 3.2 3.2 0.00 0.00 0.00 47 1012.4
20260503173521 20 172 3.2 4.8 0.00 0.00 0.00 47 1012.2
20260503173018 20 153 1.6 3.2 0.00 0.00 0.00 48 1012.3
20260503172516 20 139 1.6 1.6 0.00 0.00 0.00 46 1012.3
20260503172013 18 141 3.2 4.8 0.00 0.00 0.00 48 1012.5
20260503171509 18 168 1.6 1.6 0.00 0.00 0.00 51 1012.4
20260503171006 18 173 3.2 3.2 0.00 0.00 0.00 49 1012.3
20260503170457 18 122 3.2 3.2 0.00 0.00 0.00 49 1012.6
20260503150849 12 145 1.6 1.6 0.00 0.00 0.00 67 1013.1
20260503150345 12 122 0.0 1.6 0.00 0.00 0.00 68 1013.1
20260503140309 8 248 0.0 0.0 0.00 0.00 0.00 81 1013.4
20260503131239 5 249 0.0 0.0 0.00 0.00 0.00 91 1013.4
20260503130737 4 249 0.0 0.0 0.00 0.00 0.00 91 1013.5
20260503130234 4 249 0.0 0.0 0.00 0.00 0.00 91 1013.4
20260503120200 5 248 0.0 0.0 0.00 0.00 0.00 91 1013.4
20260503110627 5 248 0.0 0.0 0.00 0.00 0.00 87 1013.2
20260503110124 5 249 0.0 0.0 0.00 0.00 0.00 87 1013.4
20260503090508 6 249 0.0 0.0 0.00 0.00 0.00 84 1013.4
20260503081428 7 249 0.0 0.0 0.00 0.00 0.00 81 1013.2
20260503080926 7 249 0.0 0.0 0.00 0.00 0.00 82 1013.3
20260503080422 7 249 0.0 0.0 0.00 0.00 0.00 82 1013.1
20260503072858 8 249 0.0 0.0 0.00 0.00 0.00 78 1013.0
20260503072355 8 249 0.0 0.0 0.00 0.00 0.00 79 1013.0
20260503071852 8 249 0.0 0.0 0.00 0.00 0.00 80 1013.0
20260503071349 8 249 0.0 0.0 0.00 0.00 0.00 78 1012.9
20260503070845 9 249 0.0 0.0 0.00 0.00 0.00 76 1013.1
20260503070343 10 249 0.0 0.0 0.00 0.00 0.00 75 1012.9
20260503060256 10 138 0.0 0.0 0.00 0.00 0.00 76 1013.1
20260503054744 11 130 0.0 0.0 0.00 0.00 0.00 75 1012.6
20260503054240 11 120 0.0 0.0 0.00 0.00 0.00 74 1012.9
20260503053738 11 113 0.0 0.0 0.00 0.00 0.00 69 1012.6
20260503053237 11 113 0.0 0.0 0.00 0.00 0.00 70 1012.5
20260503052733 12 111 0.0 0.0 0.00 0.00 0.00 71 1012.7
20260503052230 12 112 0.0 0.0 0.00 0.00 0.00 70 1012.6
20260503051724 12 104 0.0 0.0 0.00 0.00 0.00 66 1012.6
20260503051223 12 110 0.0 0.0 0.00 0.00 0.00 68 1012.4
20260503050719 12 116 0.0 0.0 0.00 0.00 0.00 68 1012.5
20260503050215 13 117 0.0 0.0 0.00 0.00 0.00 68 1012.3
20260503045713 13 108 0.0 0.0 0.00 0.00 0.00 63 1012.6
20260503045210 13 112 0.0 0.0 0.00 0.00 0.00 62 1012.4
20260503044707 13 358 1.6 1.6 0.00 0.00 0.00 61 1012.4
20260503044204 14 224 3.2 3.2 0.00 0.00 0.00 62 1012.5
20260503043701 15 171 0.0 0.0 0.00 0.00 0.00 60 1012.4
20260503043159 15 125 0.0 0.0 0.00 0.00 0.00 58 1012.2
20260503042654 15 125 0.0 1.6 0.00 0.00 0.00 57 1012.1
20260503042150 15 36 0.0 1.6 0.00 0.00 0.00 55 1012.2
20260503041647 16 123 1.6 1.6 0.00 0.00 0.00 55 1011.9
20260503041145 16 93 1.6 1.6 0.00 0.00 0.00 55 1012.0
20260503040642 16 91 3.2 3.2 0.00 0.00 0.00 54 1012.2
20260503040140 16 115 0.0 0.0 0.00 0.00 0.00 52 1011.9
20260503035636 16 93 1.6 1.6 0.00 0.00 0.00 51 1011.7
20260503035134 16 128 0.0 0.0 0.00 0.00 0.00 53 1011.7
20260503034631 16 157 0.0 0.0 0.00 0.00 0.00 53 1011.8
20260503034128 16 148 0.0 0.0 0.00 0.00 0.00 51 1011.7
20260503033625 16 125 0.0 1.6 0.00 0.00 0.00 51 1011.6
20260503033122 17 92 1.6 1.6 0.00 0.00 0.00 50 1011.6
20260503032621 17 120 1.6 1.6 0.00 0.00 0.00 49 1011.3
20260503032119 17 104 0.0 0.0 0.00 0.00 0.00 50 1011.4
20260503031616 17 86 1.6 3.2 0.00 0.00 0.00 50 1011.2
20260503031114 17 113 0.0 0.0 0.00 0.00 0.00 49 1011.1
20260503030609 18 43 0.0 3.2 0.00 0.00 0.00 47 1011.1
20260503030106 18 93 1.6 1.6 0.00 0.00 0.00 46 1011.1
20260503025603 19 80 3.2 3.2 0.00 0.00 0.00 43 1011.0
20260503025101 20 324 4.8 4.8 0.00 0.00 0.00 42 1010.8
20260503024557 20 299 4.8 6.4 0.00 0.00 0.00 38 1010.9
20260503024054 21 86 4.8 4.8 0.00 0.00 0.00 36 1010.8
20260503023551 20 299 4.8 6.4 0.00 0.00 0.00 38 1010.8
20260503023048 21 345 1.6 3.2 0.00 0.00 0.00 40 1010.9
20260503022544 21 336 3.2 4.8 0.00 0.00 0.00 36 1010.9
20260503022039 22 16 3.2 4.8 0.00 0.00 0.00 37 1010.8
20260503021536 22 132 0.0 0.0 0.00 0.00 0.00 36 1010.8
20260503021033 22 93 0.0 0.0 0.00 0.00 0.00 37 1010.9
20260503020530 22 38 1.6 3.2 0.00 0.00 0.00 36 1010.8
20260503020027 23 333 3.2 3.2 0.00 0.00 0.00 33 1010.8
20260503015524 23 59 3.2 3.2 0.00 0.00 0.00 32 1010.8
20260503015021 23 62 3.2 3.2 0.00 0.00 0.00 31 1010.9
20260503014517 23 41 6.4 9.7 0.00 0.00 0.00 30 1010.7
20260503014015 24 88 3.2 3.2 0.00 0.00 0.00 30 1010.7
20260503013512 24 69 6.4 6.4 0.00 0.00 0.00 31 1010.7
20260503013010 25 36 3.2 3.2 0.00 0.00 0.00 31 1010.6
20260503012507 25 191 0.0 1.6 0.00 0.00 0.00 28 1010.5
20260503012003 25 107 1.6 1.6 0.00 0.00 0.00 27 1010.5
20260503011500 25 335 4.8 4.8 0.00 0.00 0.00 23 1010.6
20260503010957 26 62 1.6 1.6 0.00 0.00 0.00 24 1010.5
20260503010453 26 107 1.6 3.2 0.00 0.00 0.00 26 1010.7
20260503005951 25 188 1.6 1.6 0.00 0.00 0.00 25 1010.6
20260503005448 25 350 3.2 3.2 0.00 0.00 0.00 22 1010.8
20260503004944 26 127 0.0 1.6 0.00 0.00 0.00 25 1010.7
20260503004441 26 143 0.0 0.0 0.00 0.00 0.00 23 1010.8
20260503003939 26 78 1.6 3.2 0.00 0.00 0.00 24 1010.7
20260503003436 26 106 0.0 1.6 0.00 0.00 0.00 23 1010.8
20260503002933 26 126 0.0 1.6 0.00 0.00 0.00 22 1010.7
20260503002430 25 41 4.8 6.4 0.00 0.00 0.00 22 1010.8
20260503001926 25 133 1.6 1.6 0.00 0.00 0.00 23 1010.5
20260503001423 25 78 1.6 3.2 0.00 0.00 0.00 23 1010.7
20260503000921 26 70 3.2 3.2 0.00 0.00 0.00 21 1011.0
20260503000417 26 182 1.6 3.2 0.00 0.00 0.00 22 1010.7
20260502235914 26 165 0.0 1.6 0.00 0.00 0.00 24 1010.5
20260502235411 26 299 6.4 9.7 0.00 0.00 0.00 22 1010.8
20260502234909 26 114 1.6 1.6 0.00 0.00 0.00 23 1010.7
20260502234405 26 142 0.0 0.0 0.00 0.00 0.00 22 1010.7
20260502233902 27 152 0.0 0.0 0.00 0.00 0.00 22 1010.9
20260502233358 26 149 1.6 3.2 0.00 0.00 0.00 21 1010.8
20260502232855 26 116 0.0 1.6 0.00 0.00 0.00 22 1010.8
20260502232351 26 152 0.0 0.0 0.00 0.00 0.00 21 1011.0
20260502231848 26 161 3.2 3.2 0.00 0.00 0.00 23 1010.8
20260502231346 26 157 1.6 3.2 0.00 0.00 0.00 23 1011.2
20260502230844 26 141 0.0 1.6 0.00 0.00 0.00 24 1011.2
20260502230342 26 117 1.6 3.2 0.00 0.00 0.00 23 1011.2
20260502225838 26 93 4.8 4.8 0.00 0.00 0.00 23 1011.1
20260502225335 26 76 1.6 1.6 0.00 0.00 0.00 23 1011.2
20260502224832 26 140 0.0 0.0 0.00 0.00 0.00 23 1011.3
20260502224328 26 138 3.2 3.2 0.00 0.00 0.00 22 1011.2
20260502223825 26 131 0.0 1.6 0.00 0.00 0.00 25 1011.4
20260502223323 26 160 1.6 3.2 0.00 0.00 0.00 27 1011.7
20260502222821 26 106 3.2 3.2 0.00 0.00 0.00 26 1011.8
20260502222318 26 153 0.0 1.6 0.00 0.00 0.00 27 1011.4
20260502221814 25 115 0.0 1.6 0.00 0.00 0.00 27 1011.4
20260502221310 25 144 1.6 3.2 0.00 0.00 0.00 28 1011.9
20260502220808 25 144 3.2 4.8 0.00 0.00 0.00 27 1011.9
20260502220303 25 145 0.0 0.0 0.00 0.00 0.00 26 1011.9
20260502215800 25 141 3.2 3.2 0.00 0.00 0.00 26 1012.0
20260502215257 25 116 1.6 3.2 0.00 0.00 0.00 25 1011.8
20260502214754 26 161 1.6 1.6 0.00 0.00 0.00 29 1012.0
20260502214250 26 129 1.6 1.6 0.00 0.00 0.00 27 1011.9
20260502213748 25 114 1.6 3.2 0.00 0.00 0.00 26 1011.9
20260502213245 25 183 3.2 3.2 0.00 0.00 0.00 25 1012.0
20260502212744 25 145 0.0 0.0 0.00 0.00 0.00 28 1012.0
20260502212242 25 141 3.2 4.8 0.00 0.00 0.00 27 1012.2
20260502211737 25 144 0.0 0.0 0.00 0.00 0.00 28 1012.4
20260502211235 24 160 1.6 1.6 0.00 0.00 0.00 26 1012.1
20260502210732 25 85 3.2 3.2 0.00 0.00 0.00 27 1012.4
20260502210229 25 139 3.2 3.2 0.00 0.00 0.00 27 1012.4
20260502205726 24 157 6.4 6.4 0.00 0.00 0.00 30 1012.4
20260502205222 23 129 0.0 0.0 0.00 0.00 0.00 29 1012.6
20260502204719 24 138 4.8 4.8 0.00 0.00 0.00 29 1012.5
20260502204217 23 170 6.4 6.4 0.00 0.00 0.00 29 1012.7
20260502203715 23 158 6.4 6.4 0.00 0.00 0.00 29 1012.6
20260502203212 23 174 6.4 6.4 0.00 0.00 0.00 30 1012.9
20260502202706 23 186 8.0 11.3 0.00 0.00 0.00 30 1012.7
20260502202205 23 145 1.6 1.6 0.00 0.00 0.00 28 1013.0
20260502201702 23 153 6.4 9.7 0.00 0.00 0.00 29 1012.7
20260502201158 23 174 4.8 4.8 0.00 0.00 0.00 28 1013.0
20260502200654 23 221 3.2 3.2 0.00 0.00 0.00 29 1013.0
20260502200150 22 163 0.0 1.6 0.00 0.00 0.00 34 1012.7
20260502195648 22 218 3.2 4.8 0.00 0.00 0.00 31 1013.1
20260502195139 22 165 6.4 9.7 0.00 0.00 0.00 30 1013.2
20260502194636 22 158 4.8 4.8 0.00 0.00 0.00 34 1013.0
20260502194133 22 147 1.6 3.2 0.00 0.00 0.00 33 1013.1
20260502193629 22 177 3.2 3.2 0.00 0.00 0.00 34 1013.2
20260502193126 22 169 1.6 1.6 0.00 0.00 0.00 33 1013.1
20260502192622 22 190 4.8 4.8 0.00 0.00 0.00 34 1013.1
20260502192120 22 218 3.2 3.2 0.00 0.00 0.00 36 1013.3
20260502191616 22 156 1.6 1.6 0.00 0.00 0.00 35 1013.3
20260502191114 22 136 1.6 1.6 0.00 0.00 0.00 35 1013.4
20260502190611 22 132 1.6 1.6 0.00 0.00 0.00 33 1013.5
20260502190109 22 169 6.4 9.7 0.00 0.00 0.00 33 1013.4
20260502185603 22 146 1.6 1.6 0.00 0.00 0.00 32 1013.5
20260502185100 23 83 1.6 4.8 0.00 0.00 0.00 33 1013.7